Overview Statistics Trail Chart Weather Telemetry Raw packets
 

This is the latest recevied weather packets stored in our database for station/object K6POO-1. If no packets are shown the sender has not sent any weather packets the latest 10 day(s).

<< 7 8 9 10 11 12 13 >>
Time Temp. Humidity Pressure Rain* Wind** Luminosity Snow
1788634522 22.22° C 60% 1015.3 hPa 0 mm - 897 W/m² -
1788634221 22.22° C 60% 1015.2 hPa 0 mm - 892 W/m² -
1788633915 22.22° C 60% 1015.3 hPa 0 mm - 883 W/m² -
1788633614 22.22° C 59% 1015.3 hPa 0 mm - 883 W/m² -
1788633314 21.67° C 63% 1015.3 hPa 0 mm - 880 W/m² -
1788633009 21.67° C 64% 1015.3 hPa 0 mm - 872 W/m² -
1788632708 21.67° C 64% 1015.3 hPa 0 mm - 866 W/m² -
1788632403 21.11° C 64% 1015.3 hPa 0 mm - 859 W/m² -
1788632098 21.11° C 65% 1015.4 hPa 0 mm - 852 W/m² -
1788631797 21.11° C 66% 1015.3 hPa 0 mm - 842 W/m² -
1788631492 20.56° C 69% 1015.2 hPa 0 mm - 835 W/m² -
1788631187 20.56° C 68% 1015.2 hPa 0 mm - 823 W/m² -
1788630887 20.56° C 68% 1015.2 hPa 0 mm - 814 W/m² -
1788630583 20° C 70% 1015.5 hPa 0 mm - 798 W/m² -
1788630278 20.56° C 69% 1015.4 hPa 0 mm - 775 W/m² -
1788629973 20.56° C 69% 1015.3 hPa 0 mm - 750 W/m² -
1788629670 20° C 69% 1015.3 hPa 0 mm - 727 W/m² -
1788629365 20° C 71% 1015.2 hPa 0 mm - 699 W/m² -
1788629062 20° C 71% 1015.3 hPa 0 mm - 679 W/m² -
1788628759 20° C 71% 1015.3 hPa 0 mm - 665 W/m² -
1788628455 20° C 71% 1015.2 hPa 0 mm - 641 W/m² -
1788628151 20° C 71% 1015.3 hPa 0 mm - 627 W/m² -
1788627847 20° C 71% 1015.1 hPa 0 mm - 610 W/m² -
1788627546 20° C 72% 1015.1 hPa 0 mm - 592 W/m² -
1788627241 20° C 71% 1015.1 hPa 0 mm - 579 W/m² -

* Rain latest hour (hover to see other rain measurements)
** Current wind speed in m/s (hover to see current wind gust speed)